Volver al catálogo

STARLINK-38036

ActivoComunicacionesSSO
NORAD 69756·PAYLOAD·🇺🇸 United States

Lanzado Jul 2, 2026 desde Vandenberg Space Force Base

Loading…

Próximos Pases (próximas 24 horas)

TLE

ActualizadoSource: CelesTrak SupGP

Época: Sep 14, 2026, 23:14 UTC

1 69756C 26150T   26257.96854167  .00078810  00000+0  24465-2 0  2578
2 69756  97.2847  97.0503 0001720  93.5923 250.8365 15.33397527    12

Sigue STARLINK-38036 en tiempo real con AllMySat

Download on the App Store